Погода в Сергеевке

Украина / Одесская область     46°01′41″N   30°22′12″E
темп.,
°C
ветер,
м/с
пор.,
м/с
влажн.,
%
обл.,
%
осадки,
мм/ч
давл.,
гПа
погр.,
м
2 марта, вт
вт223:00+3с5879100 0.1 1032612
02:00+1с488285 0.1 1033255
05:000сз34877 0.0 103290
08:00+2зсз347235 0.0 1032177
11:00+6зсз345319 0.0 10311065
14:00+7зсз565934 0.0 10291004
17:00+8з595937 0.0 1027752
20:00+6зюз5116749 0.0 1026229
3 марта, ср
ср323:00+5зсз511737 0.0 1025275
02:00+5ссз613794 0.0 1027529
05:00+4с6107654 0.0 1027858
08:00+5с596672 0.0 10291053
11:00+8ссз57530 0.0 10301077
14:00+10ссз45440 0.0 10291231
17:00+9ссз24460 0.0 10281172
20:00+6ююз115849 0.0 102924
4 марта, чт
чт423:00+5юз23638 0.0 102827
02:00+3юз46814 0.0 1027117
05:00+3юз46890 0.0 1024131
08:00+5юз510811 0.0 1023300
11:00+9ююз811650 0.0 1020584
14:00+11ююз912600 0.0 1018759
17:00+8ююз8127330 0.0 1015363
20:00+7ююз7128116 0.0 1015260
5 марта, пт
пт523:00+6ююз610850 0.0 1014208
02:00+5юз45882 0.0 101490
05:00+5ююз448642 0.0 101272
08:00+6юз367869 0.0 1012162
11:00+11юз5656100 0.0 1011368
14:00+14юз564789 0.0 1010733
17:00+14юз354763 0.0 1010121
20:00+10зюз345431 0.0 101139
6 марта, сб
сб623:00+8св347245 0.0 101257
02:00+7с6118372 0.0 1013354
05:00+5с5988100 0.0 1015407
08:00+2с91292100 0.1 1018510
11:00+4ссв81056100 0.3 10201102
14:00+5с81041100 0.3 10221462
17:00+4с7944100 0.0 10241557
20:00+1с494767 0.0 1026395